This is the latest recevied weather packets stored in our database for station/object N3WMC. If no packets are shown the sender has not sent any weather packets the latest 10 day(s).
| Time | Temp. | Humidity | Pressure | Rain* | Wind** | Luminosity | Snow |
|---|---|---|---|---|---|---|---|
| 1777494648 | 15° C | 92% | 1006.9 hPa | 0 mm | - | 99 W/m² | - |
| 1777494345 | 15° C | 93% | 1007 hPa | 0 mm | - | 168 W/m² | - |
| 1777494042 | 15° C | 93% | 1006.7 hPa | 0 mm | - | 123 W/m² | - |
| 1777493740 | 15° C | 93% | 1006.8 hPa | 0 mm | - | 152 W/m² | - |
| 1777493438 | 15° C | 93% | 1006.8 hPa | 0 mm | - | 108 W/m² | - |
| 1777493133 | 15.56° C | 94% | 1006.9 hPa | 1.27 mm | - | 168 W/m² | - |
| 1777492830 | 15° C | 94% | 1006.8 hPa | 1.27 mm | - | 221 W/m² | - |
| 1777492526 | 15.56° C | 95% | 1006.8 hPa | 1.27 mm | - | 359 W/m² | - |
| 1777492222 | 15° C | 95% | 1006.5 hPa | 0 mm | - | 257 W/m² | - |
| 1777491920 | 14.44° C | 95% | 1006.3 hPa | 3.05 mm | - | 167 W/m² | - |
| 1777491616 | 14.44° C | 95% | 1006.6 hPa | 10.67 mm | - | 27 W/m² | - |
| 1777491314 | 15° C | 95% | 1006.3 hPa | 13.72 mm | - | 41 W/m² | - |
| 1777491010 | 16.11° C | 95% | 1006.8 hPa | 7.87 mm | - | 19 W/m² | - |
| 1777490706 | 16.11° C | 95% | 1006.4 hPa | 0 mm | - | 13 W/m² | - |
| 1777490404 | 16.11° C | 95% | 1006.5 hPa | 1.78 mm | - | 69 W/m² | - |
| 1777490099 | 16.11° C | 95% | 1006.4 hPa | 3.05 mm | - | 69 W/m² | - |
| 1777489796 | 16.11° C | 96% | 1006.3 hPa | 3.05 mm | - | 114 W/m² | - |
| 1777489494 | 16.11° C | 96% | 1006.3 hPa | 3.05 mm | - | 120 W/m² | - |
| 1777489191 | 16.11° C | 96% | 1006.5 hPa | 3.05 mm | - | 90 W/m² | - |
| 1777488887 | 16.11° C | 96% | 1006.2 hPa | 9.65 mm | - | 61 W/m² | - |
| 1777488584 | 16.11° C | 96% | 1006.2 hPa | 8.89 mm | - | 38 W/m² | - |
| 1777488282 | 16.11° C | 95% | 1006.5 hPa | 3.05 mm | - | 32 W/m² | - |
| 1777487975 | 16.11° C | 95% | 1006.3 hPa | 3.05 mm | - | 47 W/m² | - |
| 1777487672 | 16.11° C | 94% | 1006 hPa | 1.27 mm | - | 34 W/m² | - |
| 1777487369 | 16.11° C | 95% | 1005.9 hPa | 3.05 mm | - | 35 W/m² | - |
* Rain latest hour (hover to see other rain measurements)
** Current wind speed in m/s (hover to see current wind gust speed)